Time,TemperatureF,DewpointF,PressureIn,WindDirection,WindDirectionDegrees,WindSpeedMPH,WindSpeedGustMPH,Humidity,HourlyPrecipIn,Conditions,Clouds,dailyrainin,SoftwareType,DateUTC
2013-05-11 00:00:00,44.8,41.5,29.86,WNW,288,1.0,10.0,88,0.00,,---,0.00,VWS V14.01,2013-05-11 05:00:00,
2013-05-11 00:01:00,44.8,41.5,29.85,West,267,2.0,4.0,88,0.00,,---,0.00,VWS V14.01,2013-05-11 05:01:00,
2013-05-11 00:06:00,44.8,41.2,29.85,East,86,3.0,8.0,87,0.00,,---,0.00,VWS V14.01,2013-05-11 05:06:00,
2013-05-11 00:11:00,44.7,41.1,29.86,SSW,210,1.0,8.0,87,0.00,,---,0.00,VWS V14.01,2013-05-11 05:11:00,
2013-05-11 00:16:00,44.8,41.2,29.86,NW,326,2.0,8.0,87,0.00,,---,0.00,VWS V14.01,2013-05-11 05:16:00,
2013-05-11 00:21:00,44.8,41.2,29.86,NNW,336,0.0,8.0,87,0.00,,---,0.00,VWS V14.01,2013-05-11 05:21:00,
2013-05-11 00:26:00,44.8,41.2,29.85,East,83,2.0,8.0,87,0.00,,---,0.00,VWS V14.01,2013-05-11 05:26:00,
2013-05-11 00:30:00,44.8,41.2,29.86,SW,219,1.0,8.0,87,0.00,,---,0.00,VWS V14.01,2013-05-11 05:30:00,
2013-05-11 00:31:00,44.8,41.2,29.86,South,191,1.0,7.0,87,0.00,,---,0.00,VWS V14.01,2013-05-11 05:31:00,
2013-05-11 00:36:00,44.8,41.2,29.86,ENE,73,1.0,7.0,87,0.00,,---,0.00,VWS V14.01,2013-05-11 05:36:00,
2013-05-11 00:41:00,44.8,41.2,29.86,WNW,284,2.0,7.0,87,0.00,,---,0.00,VWS V14.01,2013-05-11 05:41:00,
2013-05-11 00:46:00,44.7,41.4,29.86,WNW,284,4.0,7.0,88,0.00,,---,0.00,VWS V14.01,2013-05-11 05:46:00,
2013-05-11 00:51:00,44.8,41.5,29.86,NNW,343,0.0,7.0,88,0.00,,---,0.00,VWS V14.01,2013-05-11 05:51:00,
2013-05-11 00:56:00,44.8,41.5,29.86,West,266,1.0,7.0,88,0.00,,---,0.00,VWS V14.01,2013-05-11 05:56:00,
2013-05-11 01:00:00,44.8,41.5,29.86,East,83,2.0,7.0,88,0.00,,---,0.00,VWS V14.01,2013-05-11 06:00:00,
2013-05-11 01:01:00,44.7,41.4,29.86,North,352,0.0,6.0,88,0.00,,---,0.00,VWS V14.01,2013-05-11 06:01:00,
2013-05-11 01:06:00,44.8,41.5,29.86,WNW,285,1.0,6.0,88,0.00,,---,0.00,VWS V14.01,2013-05-11 06:06:00,
2013-05-11 01:11:00,44.8,41.5,29.86,SE,139,1.0,6.0,88,0.00,,---,0.00,VWS V14.01,2013-05-11 06:11:00,
2013-05-11 01:16:00,44.8,41.5,29.86,WSW,240,2.0,6.0,88,0.00,,---,0.00,VWS V14.01,2013-05-11 06:16:00,
2013-05-11 01:21:00,44.8,41.5,29.86,WNW,297,2.0,6.0,88,0.00,,---,0.00,VWS V14.01,2013-05-11 06:21:00,
2013-05-11 01:26:00,44.8,41.5,29.86,WNW,297,0.0,6.0,88,0.00,,---,0.00,VWS V14.01,2013-05-11 06:26:00,
2013-05-11 01:30:00,44.8,41.8,29.86,WSW,255,0.0,6.0,89,0.00,,---,0.00,VWS V14.01,2013-05-11 06:30:00,
2013-05-11 01:31:00,44.8,41.8,29.87,WNW,293,3.0,3.0,89,0.00,,---,0.00,VWS V14.01,2013-05-11 06:31:00,
2013-05-11 01:36:00,44.8,41.8,29.87,WNW,297,0.0,4.0,89,0.00,,---,0.00,VWS V14.01,2013-05-11 06:36:00,
2013-05-11 01:41:00,44.8,41.8,29.87,West,259,0.0,4.0,89,0.00,,---,0.00,VWS V14.01,2013-05-11 06:41:00,
2013-05-11 01:46:00,44.9,41.9,29.87,SW,229,1.0,4.0,89,0.00,,---,0.00,VWS V14.01,2013-05-11 06:46:00,
2013-05-11 01:51:00,44.9,41.9,29.87,West,266,0.0,5.0,89,0.00,,---,0.00,VWS V14.01,2013-05-11 06:51:00,
2013-05-11 01:56:00,44.9,41.9,29.87,WNW,301,0.0,5.0,89,0.00,,---,0.00,VWS V14.01,2013-05-11 06:56:00,
2013-05-11 02:00:00,44.9,41.9,29.86,WNW,301,0.0,5.0,89,0.00,,---,0.00,VWS V14.01,2013-05-11 07:00:00,
2013-05-11 02:01:00,44.9,41.9,29.86,West,266,3.0,3.0,89,0.00,,---,0.00,VWS V14.01,2013-05-11 07:01:00,
2013-05-11 02:06:00,44.9,41.9,29.86,WNW,286,2.0,4.0,89,0.00,,---,0.00,VWS V14.01,2013-05-11 07:06:00,
2013-05-11 02:11:00,45.0,42.0,29.87,WNW,291,1.0,4.0,89,0.00,,---,0.00,VWS V14.01,2013-05-11 07:11:00,
2013-05-11 02:16:00,45.0,42.2,29.87,WNW,283,4.0,5.0,90,0.00,,---,0.00,VWS V14.01,2013-05-11 07:16:00,
2013-05-11 02:21:00,45.0,42.2,29.87,West,262,1.0,5.0,90,0.00,,---,0.00,VWS V14.01,2013-05-11 07:21:00,
2013-05-11 02:26:00,44.9,42.2,29.87,WNW,287,2.0,5.0,90,0.00,,---,0.00,VWS V14.01,2013-05-11 07:26:00,
2013-05-11 02:30:00,44.9,42.2,29.87,WNW,283,1.0,5.0,90,0.00,,---,0.00,VWS V14.01,2013-05-11 07:30:00,
2013-05-11 02:31:00,44.9,42.2,29.87,SW,219,3.0,4.0,90,0.00,,---,0.00,VWS V14.01,2013-05-11 07:31:00,
2013-05-11 02:36:00,44.9,42.2,29.87,West,271,2.0,5.0,90,0.00,,---,0.00,VWS V14.01,2013-05-11 07:36:00,
2013-05-11 02:41:00,44.8,42.3,29.88,NNW,338,0.0,5.0,91,0.00,,---,0.00,VWS V14.01,2013-05-11 07:41:00,
2013-05-11 02:46:00,44.7,42.2,29.88,WNW,291,2.0,6.0,91,0.00,,---,0.00,VWS V14.01,2013-05-11 07:46:00,
2013-05-11 02:51:00,44.7,42.2,29.88,WNW,284,2.0,6.0,91,0.00,,---,0.00,VWS V14.01,2013-05-11 07:51:00,
2013-05-11 02:56:00,44.7,42.2,29.88,West,276,2.0,6.0,91,0.00,,---,0.00,VWS V14.01,2013-05-11 07:56:00,
2013-05-11 03:00:00,44.7,42.2,29.87,NNE,23,2.0,6.0,91,0.00,,---,0.00,VWS V14.01,2013-05-11 08:00:00,
2013-05-11 03:01:00,44.7,42.2,29.87,West,274,1.0,4.0,91,0.00,,---,0.00,VWS V14.01,2013-05-11 08:01:00,
2013-05-11 03:06:00,44.7,42.2,29.87,NNW,328,3.0,7.0,91,0.00,,---,0.00,VWS V14.01,2013-05-11 08:06:00,
2013-05-11 03:11:00,44.7,42.2,29.87,West,267,1.0,8.0,91,0.00,,---,0.00,VWS V14.01,2013-05-11 08:11:00,
2013-05-11 03:16:00,44.7,42.0,29.87,NW,308,2.0,8.0,90,0.00,,---,0.00,VWS V14.01,2013-05-11 08:16:00,
2013-05-11 03:21:00,44.7,42.0,29.87,NW,313,3.0,8.0,90,0.00,,---,0.00,VWS V14.01,2013-05-11 08:21:00,
2013-05-11 03:26:00,44.7,42.0,29.87,West,270,1.0,8.0,90,0.00,,---,0.00,VWS V14.01,2013-05-11 08:26:00,
2013-05-11 03:30:00,44.8,42.0,29.87,WSW,250,3.0,8.0,90,0.00,,---,0.00,VWS V14.01,2013-05-11 08:30:00,
2013-05-11 03:31:00,44.8,42.0,29.87,SW,233,0.0,4.0,90,0.00,,---,0.00,VWS V14.01,2013-05-11 08:31:00,
2013-05-11 03:36:00,44.8,42.0,29.87,WSW,248,0.0,4.0,90,0.00,,---,0.00,VWS V14.01,2013-05-11 08:36:00,
2013-05-11 03:41:00,44.9,42.2,29.87,WNW,297,1.0,4.0,90,0.00,,---,0.00,VWS V14.01,2013-05-11 08:41:00,
2013-05-11 03:46:00,44.9,41.9,29.87,WSW,256,1.0,7.0,89,0.00,,---,0.00,VWS V14.01,2013-05-11 08:46:00,
2013-05-11 03:51:00,44.9,41.9,29.87,West,276,3.0,7.0,89,0.00,,---,0.00,VWS V14.01,2013-05-11 08:51:00,
2013-05-11 03:56:00,44.9,41.9,29.88,NW,321,0.0,7.0,89,0.00,,---,0.00,VWS V14.01,2013-05-11 08:56:00,
2013-05-11 04:00:00,44.9,41.9,29.87,West,270,0.0,7.0,89,0.00,,---,0.00,VWS V14.01,2013-05-11 09:00:00,
2013-05-11 04:01:00,44.9,41.9,29.87,West,262,5.0,7.0,89,0.00,,---,0.00,VWS V14.01,2013-05-11 09:01:00,
2013-05-11 04:06:00,44.9,41.9,29.87,ESE,120,1.0,7.0,89,0.00,,---,0.00,VWS V14.01,2013-05-11 09:06:00,
2013-05-11 04:11:00,44.9,41.9,29.87,West,262,3.0,7.0,89,0.00,,---,0.00,VWS V14.01,2013-05-11 09:11:00,
2013-05-11 04:16:00,44.9,41.9,29.87,West,267,3.0,7.0,89,0.00,,---,0.00,VWS V14.01,2013-05-11 09:16:00,
2013-05-11 04:21:00,44.9,41.9,29.87,NW,321,0.0,7.0,89,0.00,,---,0.00,VWS V14.01,2013-05-11 09:21:00,
2013-05-11 04:26:00,44.9,41.9,29.87,WNW,300,1.0,7.0,89,0.00,,---,0.00,VWS V14.01,2013-05-11 09:26:00,
2013-05-11 04:30:00,44.9,41.9,29.87,WNW,284,3.0,7.0,89,0.00,,---,0.00,VWS V14.01,2013-05-11 09:30:00,
2013-05-11 04:31:00,44.9,41.9,29.87,WNW,288,0.0,4.0,89,0.00,,---,0.00,VWS V14.01,2013-05-11 09:31:00,
2013-05-11 04:36:00,44.9,41.9,29.87,WNW,295,1.0,4.0,89,0.00,,---,0.00,VWS V14.01,2013-05-11 09:36:00,
2013-05-11 04:41:00,44.9,41.9,29.87,NNE,16,1.0,4.0,89,0.00,,---,0.00,VWS V14.01,2013-05-11 09:41:00,
2013-05-11 04:46:00,44.9,41.9,29.87,West,271,3.0,4.0,89,0.00,,---,0.00,VWS V14.01,2013-05-11 09:46:00,
2013-05-11 04:51:00,44.9,42.2,29.87,West,274,1.0,4.0,90,0.00,,---,0.00,VWS V14.01,2013-05-11 09:51:00,
2013-05-11 04:56:00,44.9,42.2,29.87,West,276,0.0,4.0,90,0.00,,---,0.00,VWS V14.01,2013-05-11 09:56:00,
2013-05-11 05:00:00,44.9,42.2,29.87,West,278,1.0,4.0,90,0.00,,---,0.00,VWS V14.01,2013-05-11 10:00:00,
2013-05-11 05:01:00,44.9,42.2,29.87,WNW,290,1.0,2.0,90,0.00,,---,0.00,VWS V14.01,2013-05-11 10:01:00,
2013-05-11 05:06:00,44.9,42.2,29.87,WSW,252,4.0,4.0,90,0.00,,---,0.00,VWS V14.01,2013-05-11 10:06:00,
2013-05-11 05:11:00,44.9,42.2,29.87,West,267,2.0,5.0,90,0.00,,---,0.00,VWS V14.01,2013-05-11 10:11:00,
2013-05-11 05:16:00,45.0,42.2,29.87,West,281,1.0,5.0,90,0.00,,---,0.00,VWS V14.01,2013-05-11 10:16:00,
2013-05-11 05:21:00,45.0,42.2,29.87,WNW,288,2.0,5.0,90,0.00,,---,0.00,VWS V14.01,2013-05-11 10:21:00,
2013-05-11 05:26:00,45.0,42.2,29.87,West,259,2.0,5.0,90,0.00,,---,0.00,VWS V14.01,2013-05-11 10:26:00,
2013-05-11 05:30:00,45.0,42.2,29.87,WNW,288,2.0,6.0,90,0.00,,---,0.00,VWS V14.01,2013-05-11 10:30:00,
2013-05-11 05:31:00,45.0,42.2,29.87,WNW,301,1.0,5.0,90,0.00,,---,0.00,VWS V14.01,2013-05-11 10:31:00,
2013-05-11 05:36:00,45.1,42.3,29.87,NW,326,1.0,5.0,90,0.00,,---,0.00,VWS V14.01,2013-05-11 10:36:00,
2013-05-11 05:41:00,45.2,42.2,29.88,West,281,0.0,5.0,89,0.00,,---,0.00,VWS V14.01,2013-05-11 10:41:00,
2013-05-11 05:46:00,45.2,42.2,29.88,West,264,2.0,6.0,89,0.00,,---,0.00,VWS V14.01,2013-05-11 10:46:00,
2013-05-11 05:51:00,45.2,41.9,29.88,WSW,257,5.0,7.0,88,0.00,,---,0.00,VWS V14.01,2013-05-11 10:51:00,
2013-05-11 05:56:00,45.3,42.0,29.88,West,262,1.0,7.0,88,0.00,,---,0.00,VWS V14.01,2013-05-11 10:56:00,
2013-05-11 06:00:00,45.3,42.0,29.88,West,259,0.0,7.0,88,0.00,,---,0.00,VWS V14.01,2013-05-11 11:00:00,
2013-05-11 06:01:00,45.3,42.3,29.88,West,278,2.0,2.0,89,0.00,,---,0.00,VWS V14.01,2013-05-11 11:01:00,
2013-05-11 06:06:00,45.4,42.1,29.88,West,267,2.0,4.0,88,0.00,,---,0.00,VWS V14.01,2013-05-11 11:06:00,
2013-05-11 06:11:00,45.5,42.2,29.88,West,278,0.0,4.0,88,0.00,,---,0.00,VWS V14.01,2013-05-11 11:11:00,
2013-05-11 06:16:00,45.5,42.2,29.88,WSW,256,2.0,4.0,88,0.00,,---,0.00,VWS V14.01,2013-05-11 11:16:00,
2013-05-11 06:21:00,45.5,42.2,29.88,West,269,0.0,4.0,88,0.00,,---,0.00,VWS V14.01,2013-05-11 11:21:00,
2013-05-11 06:26:00,45.6,42.3,29.88,NW,312,3.0,4.0,88,0.00,,---,0.00,VWS V14.01,2013-05-11 11:26:00,
2013-05-11 06:30:00,45.6,42.3,29.88,West,276,1.0,5.0,88,0.00,,---,0.00,VWS V14.01,2013-05-11 11:30:00,
2013-05-11 06:31:00,45.7,42.4,29.88,SE,139,0.0,3.0,88,0.00,,---,0.00,VWS V14.01,2013-05-11 11:31:00,
2013-05-11 06:36:00,45.8,42.5,29.88,WNW,288,1.0,3.0,88,0.00,,---,0.00,VWS V14.01,2013-05-11 11:36:00,
2013-05-11 06:41:00,45.8,42.5,29.88,West,278,0.0,4.0,88,0.00,,---,0.00,VWS V14.01,2013-05-11 11:41:00,
2013-05-11 06:46:00,46.0,42.3,29.87,WSW,241,0.0,4.0,87,0.00,,---,0.00,VWS V14.01,2013-05-11 11:46:00,
2013-05-11 06:51:00,46.0,42.3,29.87,NNW,343,1.0,4.0,87,0.00,,---,0.00,VWS V14.01,2013-05-11 11:51:00,
2013-05-11 06:56:00,46.0,42.3,29.88,NNW,328,1.0,5.0,87,0.00,,---,0.00,VWS V14.01,2013-05-11 11:56:00,
2013-05-11 07:00:00,46.1,42.5,29.88,WNW,285,1.0,5.0,87,0.00,,---,0.00,VWS V14.01,2013-05-11 12:00:00,
2013-05-11 07:01:00,46.1,42.5,29.88,NNW,340,4.0,4.0,87,0.00,,---,0.00,VWS V14.01,2013-05-11 12:01:00,
2013-05-11 07:06:00,46.2,42.5,29.88,SW,228,1.0,4.0,87,0.00,,---,0.00,VWS V14.01,2013-05-11 12:06:00,
2013-05-11 07:11:00,46.2,42.2,29.88,WNW,290,2.0,6.0,86,0.00,,---,0.00,VWS V14.01,2013-05-11 12:11:00,
2013-05-11 07:16:00,46.3,42.7,29.87,WNW,291,0.0,6.0,87,0.00,,---,0.00,VWS V14.01,2013-05-11 12:16:00,
2013-05-11 07:21:00,46.3,42.3,29.87,WNW,300,2.0,6.0,86,0.00,,---,0.00,VWS V14.01,2013-05-11 12:21:00,
2013-05-11 07:26:00,46.3,42.7,29.87,West,262,0.0,6.0,87,0.00,,---,0.00,VWS V14.01,2013-05-11 12:26:00,
2013-05-11 07:30:00,46.4,42.5,29.87,NW,312,2.0,4.0,86,0.00,,---,0.00,VWS V14.01,2013-05-11 12:30:00,
2013-05-11 07:35:00,46.6,42.6,29.87,WNW,284,1.0,4.0,86,0.00,,---,0.00,VWS V14.01,2013-05-11 12:35:00,
2013-05-11 07:40:00,46.7,42.7,29.87,WNW,290,6.0,8.0,86,0.00,,---,0.00,VWS V14.01,2013-05-11 12:40:00,
2013-05-11 07:46:00,46.6,42.3,29.87,NW,311,1.0,8.0,85,0.00,,---,0.00,VWS V14.01,2013-05-11 12:46:00,
2013-05-11 07:51:00,46.4,42.5,29.87,WSW,246,2.0,8.0,86,0.00,,---,0.00,VWS V14.01,2013-05-11 12:51:00,
2013-05-11 07:55:00,46.3,42.7,29.87,NNW,347,1.0,8.0,87,0.00,,---,0.00,VWS V14.01,2013-05-11 12:55:00,
2013-05-11 08:00:00,46.3,42.7,29.87,WNW,300,4.0,5.0,87,0.00,,---,0.00,VWS V14.01,2013-05-11 13:00:00,
2013-05-11 08:05:00,46.3,42.7,29.88,NW,321,0.0,5.0,87,0.00,,---,0.00,VWS V14.01,2013-05-11 13:05:00,
2013-05-11 08:10:00,46.4,42.8,29.87,WSW,243,1.0,5.0,87,0.00,,---,0.00,VWS V14.01,2013-05-11 13:10:00,
2013-05-11 08:15:00,46.1,42.2,29.88,WNW,284,1.0,5.0,86,0.00,,---,0.00,VWS V14.01,2013-05-11 13:15:00,
2013-05-11 08:21:00,46.1,42.8,29.88,WSW,252,1.0,5.0,88,0.00,,---,0.00,VWS V14.01,2013-05-11 13:21:00,
2013-05-11 08:26:00,46.2,42.5,29.88,WSW,253,1.0,5.0,87,0.00,,---,0.00,VWS V14.01,2013-05-11 13:26:00,
2013-05-11 08:30:00,46.2,42.5,29.88,SW,222,1.0,2.0,87,0.00,,---,0.00,VWS V14.01,2013-05-11 13:30:00,
2013-05-11 08:35:00,46.4,42.8,29.88,WNW,290,4.0,5.0,87,0.00,,---,0.00,VWS V14.01,2013-05-11 13:35:00,
2013-05-11 08:40:00,46.3,42.7,29.88,West,281,1.0,5.0,87,0.00,,---,0.00,VWS V14.01,2013-05-11 13:40:00,
2013-05-11 08:45:00,46.4,42.8,29.88,SW,231,6.0,7.0,87,0.00,,---,0.00,VWS V14.01,2013-05-11 13:45:00,
2013-05-11 08:50:00,46.4,43.0,29.88,West,267,3.0,7.0,88,0.00,,---,0.00,VWS V14.01,2013-05-11 13:50:00,
2013-05-11 08:55:00,46.5,42.8,29.87,WNW,290,3.0,7.0,87,0.00,,---,0.00,VWS V14.01,2013-05-11 13:55:00,
2013-05-11 09:00:00,46.4,42.8,29.88,WNW,294,2.0,4.0,87,0.00,,---,0.00,VWS V14.01,2013-05-11 14:00:00,
2013-05-11 09:05:00,46.6,43.2,29.87,SSW,200,0.0,4.0,88,0.00,,---,0.00,VWS V14.01,2013-05-11 14:05:00,
2013-05-11 09:10:00,47.0,43.6,29.87,SW,231,2.0,5.0,88,0.00,,---,0.00,VWS V14.01,2013-05-11 14:10:00,
2013-05-11 09:15:00,47.0,43.0,29.87,West,278,3.0,5.0,86,0.00,,---,0.00,VWS V14.01,2013-05-11 14:15:00,
2013-05-11 09:20:00,46.9,42.9,29.88,WSW,255,2.0,5.0,86,0.00,,---,0.00,VWS V14.01,2013-05-11 14:20:00,
2013-05-11 09:25:00,46.9,43.2,29.88,WNW,295,0.0,6.0,87,0.00,,---,0.00,VWS V14.01,2013-05-11 14:25:00,
2013-05-11 09:30:00,47.2,43.5,29.88,WSW,241,1.0,4.0,87,0.00,,---,0.00,VWS V14.01,2013-05-11 14:30:00,
2013-05-11 09:35:00,47.2,43.2,29.88,WNW,290,3.0,7.0,86,0.00,,---,0.00,VWS V14.01,2013-05-11 14:35:00,
2013-05-11 09:40:00,47.3,43.9,29.88,West,262,3.0,7.0,88,0.00,,---,0.00,VWS V14.01,2013-05-11 14:40:00,
2013-05-11 09:45:00,47.3,43.6,29.88,WSW,241,2.0,7.0,87,0.00,,---,0.00,VWS V14.01,2013-05-11 14:45:00,
2013-05-11 09:50:00,47.2,43.5,29.88,West,276,3.0,7.0,87,0.00,,---,0.00,VWS V14.01,2013-05-11 14:50:00,
2013-05-11 09:55:00,47.1,43.4,29.88,West,273,2.0,7.0,87,0.00,,---,0.00,VWS V14.01,2013-05-11 14:55:00,
2013-05-11 10:00:00,47.3,43.6,29.88,WNW,297,2.0,3.0,87,0.00,,---,0.00,VWS V14.01,2013-05-11 15:00:00,
2013-05-11 10:05:00,47.4,43.4,29.88,WSW,256,3.0,6.0,86,0.00,,---,0.00,VWS V14.01,2013-05-11 15:05:00,
2013-05-11 10:10:00,47.7,44.0,29.88,West,274,3.0,6.0,87,0.00,,---,0.00,VWS V14.01,2013-05-11 15:10:00,
2013-05-11 10:15:00,47.7,43.7,29.88,West,278,2.0,6.0,86,0.00,,---,0.00,VWS V14.01,2013-05-11 15:15:00,
2013-05-11 10:20:00,47.7,43.7,29.88,WNW,300,0.0,7.0,86,0.00,,---,0.00,VWS V14.01,2013-05-11 15:20:00,
2013-05-11 10:25:00,47.8,43.8,29.88,WNW,285,1.0,7.0,86,0.00,,---,0.00,VWS V14.01,2013-05-11 15:25:00,
2013-05-11 10:30:00,48.0,43.7,29.88,WNW,300,4.0,7.0,85,0.00,,---,0.00,VWS V14.01,2013-05-11 15:30:00,
2013-05-11 10:35:00,48.1,43.8,29.87,West,281,3.0,7.0,85,0.00,,---,0.00,VWS V14.01,2013-05-11 15:35:00,
2013-05-11 10:40:00,48.1,43.5,29.87,SW,224,3.0,7.0,84,0.00,,---,0.00,VWS V14.01,2013-05-11 15:40:00,
2013-05-11 10:45:00,48.1,43.8,29.87,NW,315,3.0,7.0,85,0.00,,---,0.00,VWS V14.01,2013-05-11 15:45:00,
2013-05-11 10:50:00,48.5,44.2,29.87,WNW,301,3.0,7.0,85,0.00,,---,0.00,VWS V14.01,2013-05-11 15:50:00,
2013-05-11 10:55:00,48.9,44.3,29.87,West,281,4.0,7.0,84,0.00,,---,0.00,VWS V14.01,2013-05-11 15:55:00,
2013-05-11 11:00:00,49.2,44.6,29.87,WSW,246,0.0,4.0,84,0.00,,---,0.00,VWS V14.01,2013-05-11 16:00:00,
2013-05-11 11:05:00,49.5,45.2,29.87,West,276,4.0,8.0,85,0.00,,---,0.00,VWS V14.01,2013-05-11 16:05:00,
2013-05-11 11:10:00,49.4,44.5,29.87,SSW,197,1.0,8.0,83,0.00,,---,0.00,VWS V14.01,2013-05-11 16:10:00,
2013-05-11 11:15:00,49.7,44.8,29.87,SW,221,2.0,8.0,83,0.00,,---,0.00,VWS V14.01,2013-05-11 16:15:00,
2013-05-11 11:20:00,49.8,44.8,29.87,West,278,2.0,8.0,83,0.00,,---,0.00,VWS V14.01,2013-05-11 16:20:00,
2013-05-11 11:25:00,49.7,44.8,29.87,WSW,252,1.0,8.0,83,0.00,,---,0.00,VWS V14.01,2013-05-11 16:25:00,
2013-05-11 11:30:00,49.9,45.3,29.87,WSW,253,2.0,5.0,84,0.00,,---,0.00,VWS V14.01,2013-05-11 16:30:00,
2013-05-11 11:35:00,49.9,44.6,29.86,NW,309,4.0,8.0,82,0.00,,---,0.00,VWS V14.01,2013-05-11 16:35:00,
2013-05-11 11:40:00,49.8,44.8,29.86,SSW,210,1.0,8.0,83,0.00,,---,0.00,VWS V14.01,2013-05-11 16:40:00,
2013-05-11 11:45:00,50.1,45.2,29.86,WSW,240,3.0,8.0,83,0.00,,---,0.00,VWS V14.01,2013-05-11 16:45:00,
2013-05-11 11:50:00,50.4,45.8,29.86,West,276,0.0,8.0,84,0.00,,---,0.00,VWS V14.01,2013-05-11 16:50:00,
2013-05-11 11:55:00,50.6,46.0,29.86,SSW,211,1.0,8.0,84,0.00,,---,0.00,VWS V14.01,2013-05-11 16:55:00,
2013-05-11 12:00:00,50.8,45.5,29.86,SW,236,1.0,4.0,82,0.00,,---,0.00,VWS V14.01,2013-05-11 17:00:00,
2013-05-11 12:05:00,51.1,46.1,29.86,WNW,294,2.0,6.0,83,0.00,,---,0.00,VWS V14.01,2013-05-11 17:05:00,
2013-05-11 12:10:00,51.0,45.7,29.86,West,278,3.0,6.0,82,0.00,,---,0.00,VWS V14.01,2013-05-11 17:10:00,
2013-05-11 12:15:00,51.0,46.0,29.86,SW,225,2.0,7.0,83,0.00,,---,0.00,VWS V14.01,2013-05-11 17:15:00,
2013-05-11 12:20:00,51.2,45.9,29.85,SW,225,4.0,7.0,82,0.00,,---,0.00,VWS V14.01,2013-05-11 17:20:00,
2013-05-11 12:25:00,51.2,45.9,29.85,SSW,212,1.0,7.0,82,0.00,,---,0.00,VWS V14.01,2013-05-11 17:25:00,
2013-05-11 12:30:00,51.4,46.4,29.85,SSW,194,1.0,3.0,83,0.00,,---,0.00,VWS V14.01,2013-05-11 17:30:00,
2013-05-11 12:35:00,51.4,46.4,29.85,WSW,240,2.0,5.0,83,0.00,,---,0.00,VWS V14.01,2013-05-11 17:35:00,
2013-05-11 12:40:00,51.6,46.6,29.84,SW,222,3.0,6.0,83,0.00,,---,0.00,VWS V14.01,2013-05-11 17:40:00,
2013-05-11 12:45:00,51.9,46.6,29.84,SW,231,3.0,6.0,82,0.00,,---,0.00,VWS V14.01,2013-05-11 17:45:00,
2013-05-11 12:50:00,52.1,46.1,29.84,SSW,201,2.0,8.0,80,0.00,,---,0.00,VWS V14.01,2013-05-11 17:50:00,
2013-05-11 12:55:00,52.2,46.2,29.84,West,269,3.0,8.0,80,0.00,,---,0.00,VWS V14.01,2013-05-11 17:55:00,
2013-05-11 13:00:00,52.3,46.7,29.84,SSE,165,1.0,5.0,81,0.00,,---,0.00,VWS V14.01,2013-05-11 18:00:00,
2013-05-11 13:05:00,52.4,46.4,29.84,WNW,288,3.0,7.0,80,0.00,,---,0.00,VWS V14.01,2013-05-11 18:05:00,
2013-05-11 13:10:00,52.9,46.6,29.84,SW,217,4.0,7.0,79,0.00,,---,0.00,VWS V14.01,2013-05-11 18:10:00,
2013-05-11 13:15:00,53.4,46.7,29.84,NW,308,2.0,7.0,78,0.00,,---,0.00,VWS V14.01,2013-05-11 18:15:00,
2013-05-11 13:20:00,53.9,47.5,29.84,SW,225,3.0,7.0,79,0.00,,---,0.00,VWS V14.01,2013-05-11 18:20:00,
2013-05-11 13:25:00,54.7,47.6,29.83,SW,217,3.0,7.0,77,0.00,,---,0.00,VWS V14.01,2013-05-11 18:25:00,
2013-05-11 13:30:00,55.4,47.3,29.83,SSW,203,2.0,7.0,74,0.00,,---,0.00,VWS V14.01,2013-05-11 18:30:00,
2013-05-11 13:35:00,55.3,46.8,29.83,WNW,285,2.0,7.0,73,0.00,,---,0.00,VWS V14.01,2013-05-11 18:35:00,
2013-05-11 13:40:00,55.2,46.7,29.83,SW,218,4.0,7.0,73,0.00,,---,0.00,VWS V14.01,2013-05-11 18:40:00,
2013-05-11 13:45:00,55.9,47.4,29.83,WSW,240,2.0,7.0,73,0.00,,---,0.00,VWS V14.01,2013-05-11 18:45:00,
2013-05-11 13:50:00,56.7,46.7,29.82,WNW,297,5.0,7.0,69,0.00,,---,0.00,VWS V14.01,2013-05-11 18:50:00,
2013-05-11 13:55:00,56.6,47.7,29.82,SW,214,2.0,7.0,72,0.00,,---,0.00,VWS V14.01,2013-05-11 18:55:00,
2013-05-11 14:00:00,57.0,47.3,29.82,South,184,5.0,6.0,70,0.00,,---,0.00,VWS V14.01,2013-05-11 19:00:00,
2013-05-11 14:05:00,58.0,47.9,29.81,WSW,257,3.0,6.0,69,0.00,,---,0.00,VWS V14.01,2013-05-11 19:05:00,
2013-05-11 14:10:00,58.8,47.1,29.81,WNW,288,4.0,11.0,65,0.00,,---,0.00,VWS V14.01,2013-05-11 19:10:00,
2013-05-11 14:15:00,59.7,48.7,29.81,WSW,247,4.0,11.0,67,0.00,,---,0.00,VWS V14.01,2013-05-11 19:15:00,
2013-05-11 14:20:00,59.6,47.4,29.82,SW,217,4.0,12.0,64,0.00,,---,0.00,VWS V14.01,2013-05-11 19:20:00,
2013-05-11 14:25:00,59.2,47.9,29.82,South,188,2.0,12.0,66,0.00,,---,0.00,VWS V14.01,2013-05-11 19:25:00,
2013-05-11 14:30:00,59.3,48.0,29.81,SSW,198,2.0,9.0,66,0.00,,---,0.00,VWS V14.01,2013-05-11 19:30:00,
2013-05-11 14:35:00,59.2,48.3,29.81,West,263,3.0,9.0,67,0.00,,---,0.00,VWS V14.01,2013-05-11 19:35:00,
2013-05-11 14:40:00,59.2,48.3,29.81,SW,217,5.0,9.0,67,0.00,,---,0.00,VWS V14.01,2013-05-11 19:40:00,
2013-05-11 14:45:00,59.3,49.1,29.81,NW,315,2.0,9.0,69,0.00,,---,0.00,VWS V14.01,2013-05-11 19:45:00,
2013-05-11 14:50:00,60.0,48.2,29.81,SW,231,1.0,10.0,65,0.00,,---,0.00,VWS V14.01,2013-05-11 19:50:00,
2013-05-11 14:55:00,59.8,48.8,29.81,SW,222,2.0,10.0,67,0.00,,---,0.00,VWS V14.01,2013-05-11 19:55:00,
2013-05-11 15:00:00,59.3,48.0,29.80,West,266,2.0,9.0,66,0.00,,---,0.00,VWS V14.01,2013-05-11 20:00:00,
2013-05-11 15:05:00,59.1,47.8,29.80,WSW,239,10.0,10.0,66,0.00,,---,0.00,VWS V14.01,2013-05-11 20:05:00,
2013-05-11 15:10:00,59.0,47.7,29.80,SW,225,3.0,10.0,66,0.00,,---,0.00,VWS V14.01,2013-05-11 20:10:00,
2013-05-11 15:15:00,58.6,47.7,29.80,WNW,288,1.0,10.0,67,0.00,,---,0.00,VWS V14.01,2013-05-11 20:15:00,
2013-05-11 15:20:00,58.7,48.2,29.80,West,263,2.0,10.0,68,0.00,,---,0.00,VWS V14.01,2013-05-11 20:20:00,
2013-05-11 15:25:00,58.7,48.6,29.80,West,259,1.0,10.0,69,0.00,,---,0.00,VWS V14.01,2013-05-11 20:25:00,
2013-05-11 15:30:00,58.9,48.4,29.79,West,263,3.0,5.0,68,0.00,,---,0.00,VWS V14.01,2013-05-11 20:30:00,
2013-05-11 15:35:00,59.1,48.2,29.79,WSW,240,4.0,9.0,67,0.00,,---,0.00,VWS V14.01,2013-05-11 20:35:00,
2013-05-11 15:40:00,58.9,48.8,29.79,SSW,210,2.0,10.0,69,0.00,,---,0.00,VWS V14.01,2013-05-11 20:40:00,
2013-05-11 15:45:00,58.6,48.1,29.79,West,273,5.0,14.0,68,0.00,,---,0.00,VWS V14.01,2013-05-11 20:45:00,
2013-05-11 15:50:00,58.2,48.1,29.79,West,276,8.0,14.0,69,0.00,,---,0.00,VWS V14.01,2013-05-11 20:50:00,
2013-05-11 15:55:00,58.0,47.9,29.79,WSW,247,3.0,15.0,69,0.00,,---,0.00,VWS V14.01,2013-05-11 20:55:00,
2013-05-11 16:00:00,57.6,47.5,29.79,SSW,210,1.0,10.0,69,0.00,,---,0.00,VWS V14.01,2013-05-11 21:00:00,
2013-05-11 16:05:00,57.3,47.6,29.79,WSW,243,4.0,10.0,70,0.00,,---,0.00,VWS V14.01,2013-05-11 21:05:00,
2013-05-11 16:10:00,56.8,47.1,29.80,NW,309,2.0,13.0,70,0.00,,---,0.00,VWS V14.01,2013-05-11 21:10:00,
2013-05-11 16:15:00,56.6,47.7,29.80,South,174,1.0,13.0,72,0.00,,---,0.00,VWS V14.01,2013-05-11 21:15:00,
2013-05-11 16:20:00,56.2,47.7,29.80,West,276,1.0,13.0,73,0.00,,---,0.00,VWS V14.01,2013-05-11 21:20:00,
2013-05-11 16:25:00,55.9,47.7,29.80,WSW,245,5.0,13.0,74,0.00,,---,0.00,VWS V14.01,2013-05-11 21:25:00,
2013-05-11 16:30:00,55.6,47.5,29.80,WNW,285,11.0,13.0,74,0.00,,---,0.00,VWS V14.01,2013-05-11 21:30:00,
2013-05-11 16:35:00,55.3,47.5,29.80,West,271,0.0,13.0,75,0.00,,---,0.00,VWS V14.01,2013-05-11 21:35:00,
2013-05-11 16:40:00,55.1,47.7,29.80,WSW,240,4.0,13.0,76,0.00,,---,0.00,VWS V14.01,2013-05-11 21:40:00,
2013-05-11 16:45:00,54.9,47.8,29.80,SSW,200,0.0,13.0,77,0.00,,---,0.00,VWS V14.01,2013-05-11 21:45:00,
2013-05-11 16:50:00,54.7,47.3,29.80,SW,222,5.0,13.0,76,0.00,,---,0.00,VWS V14.01,2013-05-11 21:50:00,
2013-05-11 16:55:00,54.7,47.6,29.80,West,259,1.0,13.0,77,0.00,,---,0.00,VWS V14.01,2013-05-11 21:55:00,
2013-05-11 17:00:00,54.8,47.4,29.80,West,277,8.0,9.0,76,0.00,,---,0.00,VWS V14.01,2013-05-11 22:00:00,
2013-05-11 17:05:00,55.1,47.7,29.80,WNW,288,3.0,9.0,76,0.00,,---,0.00,VWS V14.01,2013-05-11 22:05:00,
2013-05-11 17:10:00,55.2,47.8,29.80,SW,233,8.0,9.0,76,0.00,,---,0.00,VWS V14.01,2013-05-11 22:10:00,
2013-05-11 17:15:00,55.2,47.8,29.80,NW,307,3.0,9.0,76,0.00,,---,0.00,VWS V14.01,2013-05-11 22:15:00,
2013-05-11 17:20:00,55.1,48.0,29.80,SW,231,2.0,9.0,77,0.00,,---,0.00,VWS V14.01,2013-05-11 22:20:00,
2013-05-11 17:25:00,55.1,48.0,29.80,West,273,3.0,9.0,77,0.00,,---,0.00,VWS V14.01,2013-05-11 22:25:00,
2013-05-11 17:30:00,55.2,47.8,29.80,SW,214,6.0,9.0,76,0.00,,---,0.00,VWS V14.01,2013-05-11 22:30:00,
2013-05-11 17:35:00,55.2,48.1,29.80,SW,236,3.0,10.0,77,0.00,,---,0.00,VWS V14.01,2013-05-11 22:35:00,
2013-05-11 17:40:00,55.0,48.3,29.80,SW,223,5.0,10.0,78,0.00,,---,0.00,VWS V14.01,2013-05-11 22:40:00,
2013-05-11 17:45:00,54.7,48.0,29.80,SW,219,1.0,10.0,78,0.00,,---,0.00,VWS V14.01,2013-05-11 22:45:00,
2013-05-11 17:50:00,54.5,48.1,29.80,West,261,2.0,10.0,79,0.00,,---,0.00,VWS V14.01,2013-05-11 22:50:00,
2013-05-11 17:55:00,54.3,47.9,29.80,WSW,245,7.0,10.0,79,0.00,,---,0.00,VWS V14.01,2013-05-11 22:55:00,
2013-05-11 18:00:00,54.1,47.7,29.80,SW,228,2.0,4.0,79,0.00,,---,0.00,VWS V14.01,2013-05-11 23:00:00,
2013-05-11 18:05:00,53.5,47.2,29.82,WNW,286,9.0,20.0,79,0.00,,---,0.00,VWS V14.01,2013-05-11 23:05:00,
2013-05-11 18:10:00,51.7,45.1,29.83,WNW,285,6.0,20.0,78,0.00,,---,0.00,VWS V14.01,2013-05-11 23:10:00,
2013-05-11 18:15:00,50.3,43.0,29.83,West,264,10.0,20.0,76,0.00,,---,0.00,VWS V14.01,2013-05-11 23:15:00,
2013-05-11 18:20:00,49.4,42.2,29.83,West,280,5.0,20.0,76,0.00,,---,0.00,VWS V14.01,2013-05-11 23:20:00,
2013-05-11 18:25:00,48.9,42.0,29.84,WSW,256,8.0,20.0,77,0.00,,---,0.00,VWS V14.01,2013-05-11 23:25:00,
2013-05-11 18:30:00,48.4,41.9,29.84,WNW,290,8.0,19.0,78,0.00,,---,0.00,VWS V14.01,2013-05-11 23:30:00,
2013-05-11 18:35:00,47.8,42.3,29.85,West,267,11.0,19.0,81,0.00,,---,0.00,VWS V14.01,2013-05-11 23:35:00,
2013-05-11 18:40:00,47.3,42.4,29.85,SSW,207,5.0,19.0,83,0.00,,---,0.00,VWS V14.01,2013-05-11 23:40:00,
2013-05-11 18:45:00,47.0,42.1,29.86,West,278,4.0,19.0,83,0.00,,---,0.00,VWS V14.01,2013-05-11 23:45:00,
2013-05-11 18:50:00,47.0,41.8,29.86,West,280,7.0,19.0,82,0.00,,---,0.00,VWS V14.01,2013-05-11 23:50:00,
2013-05-11 18:55:00,47.1,41.3,29.86,West,270,5.0,19.0,80,0.00,,---,0.00,VWS V14.01,2013-05-11 23:55:00,
2013-05-11 19:00:00,47.2,40.4,29.86,WSW,253,3.0,13.0,77,0.00,,---,0.00,VWS V14.01,2013-05-12 00:00:00,
2013-05-11 19:05:00,47.1,39.2,29.87,NW,309,6.0,17.0,74,0.00,,---,0.00,VWS V14.01,2013-05-12 00:05:00,
2013-05-11 19:10:00,47.1,38.9,29.87,NW,309,7.0,17.0,73,0.00,,---,0.00,VWS V14.01,2013-05-12 00:10:00,
2013-05-11 19:15:00,47.0,38.8,29.87,WNW,298,3.0,17.0,73,0.00,,---,0.00,VWS V14.01,2013-05-12 00:15:00,
2013-05-11 19:29:00,47.2,38.3,29.88,WNW,287,4.0,4.0,71,0.00,,---,0.00,VWS V14.01,2013-05-12 00:29:00,
2013-05-11 19:30:00,48.6,41.7,29.84,WNW,297,6.0,20.0,77,0.00,,---,0.00,VWS V14.01,2013-05-12 00:30:00,
2013-05-11 19:34:00,47.1,37.5,29.88,NNW,328,5.0,11.0,69,0.00,,---,0.00,VWS V14.01,2013-05-12 00:34:00,
2013-05-11 19:39:00,47.1,36.0,29.88,NW,305,5.0,15.0,65,0.00,,---,0.00,VWS V14.01,2013-05-12 00:39:00,
2013-05-11 19:44:00,47.0,35.1,29.88,West,276,4.0,17.0,63,0.00,,---,0.00,VWS V14.01,2013-05-12 00:44:00,
2013-05-11 19:49:00,46.9,34.6,29.89,West,273,5.0,17.0,62,0.00,,---,0.00,VWS V14.01,2013-05-12 00:49:00,
2013-05-11 19:54:00,46.6,35.1,29.89,West,280,16.0,18.0,64,0.00,,---,0.00,VWS V14.01,2013-05-12 00:54:00,
2013-05-11 19:59:00,46.2,35.1,29.89,WSW,256,13.0,13.0,65,0.00,,---,0.00,VWS V14.01,2013-05-12 00:59:00,
2013-05-11 20:00:00,46.3,34.8,29.89,WSW,256,2.0,18.0,64,0.00,,---,0.00,VWS V14.01,2013-05-12 01:00:00,
2013-05-11 20:04:00,45.8,35.5,29.89,WNW,287,8.0,13.0,67,0.00,,---,0.00,VWS V14.01,2013-05-12 01:04:00,
2013-05-11 20:09:00,45.5,35.6,29.90,NW,308,6.0,13.0,68,0.00,,---,0.00,VWS V14.01,2013-05-12 01:09:00,
2013-05-11 20:14:00,45.2,35.3,29.90,NNW,340,4.0,14.0,68,0.00,,---,0.00,VWS V14.01,2013-05-12 01:14:00,
2013-05-11 20:19:00,44.9,35.0,29.90,SE,134,3.0,14.0,68,0.00,,---,0.00,VWS V14.01,2013-05-12 01:19:00,
2013-05-11 20:24:00,44.6,35.1,29.90,NW,322,1.0,14.0,69,0.00,,---,0.00,VWS V14.01,2013-05-12 01:24:00,
2013-05-11 20:29:00,44.3,34.8,29.91,West,278,2.0,6.0,69,0.00,,---,0.00,VWS V14.01,2013-05-12 01:29:00,
2013-05-11 20:30:00,44.4,34.9,29.91,West,276,3.0,14.0,69,0.00,,---,0.00,VWS V14.01,2013-05-12 01:30:00,
2013-05-11 20:34:00,44.1,35.0,29.91,SW,226,3.0,11.0,70,0.00,,---,0.00,VWS V14.01,2013-05-12 01:34:00,
2013-05-11 20:39:00,43.8,35.0,29.91,West,263,2.0,11.0,71,0.00,,---,0.00,VWS V14.01,2013-05-12 01:39:00,
2013-05-11 20:44:00,43.5,34.7,29.92,NW,314,2.0,11.0,71,0.00,,---,0.00,VWS V14.01,2013-05-12 01:44:00,
2013-05-11 20:49:00,43.3,34.9,29.92,WNW,295,2.0,11.0,72,0.00,,---,0.00,VWS V14.01,2013-05-12 01:49:00,
2013-05-11 20:54:00,43.1,34.7,29.92,NW,307,4.0,11.0,72,0.00,,---,0.00,VWS V14.01,2013-05-12 01:54:00,
2013-05-11 20:59:00,43.0,34.6,29.92,WNW,293,4.0,4.0,72,0.00,,---,0.00,VWS V14.01,2013-05-12 01:59:00,
2013-05-11 21:00:00,43.0,34.6,29.92,West,260,3.0,11.0,72,0.00,,---,0.00,VWS V14.01,2013-05-12 02:00:00,
2013-05-11 21:04:00,42.8,34.4,29.93,WNW,297,1.0,6.0,72,0.00,,---,0.00,VWS V14.01,2013-05-12 02:04:00,
2013-05-11 21:09:00,42.7,34.3,29.93,West,264,2.0,7.0,72,0.00,,---,0.00,VWS V14.01,2013-05-12 02:09:00,
2013-05-11 21:14:00,42.5,34.5,29.93,West,267,1.0,7.0,73,0.00,,---,0.00,VWS V14.01,2013-05-12 02:14:00,
2013-05-11 21:19:00,42.3,34.6,29.93,WSW,240,1.0,7.0,74,0.00,,---,0.00,VWS V14.01,2013-05-12 02:19:00,
2013-05-11 21:24:00,42.0,34.3,29.93,West,266,0.0,7.0,74,0.00,,---,0.00,VWS V14.01,2013-05-12 02:24:00,
2013-05-11 21:29:00,41.7,34.4,29.94,West,277,3.0,4.0,75,0.00,,---,0.00,VWS V14.01,2013-05-12 02:29:00,
2013-05-11 21:30:00,41.8,34.5,29.93,West,259,1.0,7.0,75,0.00,,---,0.00,VWS V14.01,2013-05-12 02:30:00,
2013-05-11 21:34:00,41.6,34.6,29.94,WSW,252,1.0,4.0,76,0.00,,---,0.00,VWS V14.01,2013-05-12 02:34:00,
2013-05-11 21:39:00,41.3,34.3,29.94,WSW,252,0.0,4.0,76,0.00,,---,0.00,VWS V14.01,2013-05-12 02:39:00,
2013-05-11 21:44:00,40.9,34.3,29.94,WNW,285,0.0,4.0,77,0.00,,---,0.00,VWS V14.01,2013-05-12 02:44:00,
2013-05-11 21:49:00,40.7,34.1,29.94,West,259,0.0,4.0,77,0.00,,---,0.00,VWS V14.01,2013-05-12 02:49:00,
2013-05-11 21:54:00,40.5,34.2,29.94,West,278,0.0,4.0,78,0.00,,---,0.00,VWS V14.01,2013-05-12 02:54:00,
2013-05-11 21:59:00,40.4,34.1,29.94,West,278,0.0,2.0,78,0.00,,---,0.00,VWS V14.01,2013-05-12 02:59:00,
2013-05-11 22:00:00,40.5,34.2,29.94,WNW,284,0.0,4.0,78,0.00,,---,0.00,VWS V14.01,2013-05-12 03:00:00,
2013-05-11 22:04:00,40.1,33.8,29.94,WSW,238,1.0,2.0,78,0.00,,---,0.00,VWS V14.01,2013-05-12 03:04:00,
2013-05-11 22:09:00,39.9,33.6,29.95,WSW,239,0.0,2.0,78,0.00,,---,0.00,VWS V14.01,2013-05-12 03:09:00,
2013-05-11 22:14:00,39.5,33.5,29.95,WSW,248,0.0,2.0,79,0.00,,---,0.00,VWS V14.01,2013-05-12 03:14:00,
2013-05-11 22:19:00,39.0,33.4,29.95,WSW,253,0.0,2.0,80,0.00,,---,0.00,VWS V14.01,2013-05-12 03:19:00,
2013-05-11 22:24:00,38.7,33.4,29.95,WSW,252,0.0,2.0,81,0.00,,---,0.00,VWS V14.01,2013-05-12 03:24:00,
2013-05-11 22:29:00,38.5,33.5,29.95,WNW,284,0.0,0.0,82,0.00,,---,0.00,VWS V14.01,2013-05-12 03:29:00,
2013-05-11 22:30:00,38.6,33.6,29.95,WNW,284,0.0,2.0,82,0.00,,---,0.00,VWS V14.01,2013-05-12 03:30:00,
2013-05-11 22:34:00,38.1,32.8,29.94,WNW,284,0.0,0.0,81,0.00,,---,0.00,VWS V14.01,2013-05-12 03:34:00,
2013-05-11 22:39:00,37.5,32.8,29.95,WNW,284,0.0,0.0,83,0.00,,---,0.00,VWS V14.01,2013-05-12 03:39:00,
2013-05-11 22:44:00,37.0,32.6,29.95,WNW,284,0.0,0.0,84,0.00,,---,0.00,VWS V14.01,2013-05-12 03:44:00,
2013-05-11 22:49:00,36.6,32.5,29.95,WNW,284,0.0,0.0,85,0.00,,---,0.00,VWS V14.01,2013-05-12 03:49:00,
2013-05-11 22:54:00,36.4,32.6,29.95,WNW,284,0.0,0.0,86,0.00,,---,0.00,VWS V14.01,2013-05-12 03:54:00,
2013-05-11 22:59:00,35.9,32.1,29.95,WNW,284,0.0,0.0,86,0.00,,---,0.00,VWS V14.01,2013-05-12 03:59:00,
2013-05-11 23:00:00,36.0,31.9,29.95,WNW,284,0.0,0.0,85,0.00,,---,0.00,VWS V14.01,2013-05-12 04:00:00,
2013-05-11 23:01:00,35.6,31.8,29.95,WNW,284,0.0,0.0,86,0.00,,---,0.00,VWS V14.01,2013-05-12 04:01:00,
2013-05-11 23:06:00,35.2,31.7,29.95,WNW,284,0.0,0.0,87,0.00,,---,0.00,VWS V14.01,2013-05-12 04:06:00,
2013-05-11 23:11:00,34.8,31.6,29.95,WNW,284,0.0,0.0,88,0.00,,---,0.00,VWS V14.01,2013-05-12 04:11:00,
2013-05-11 23:16:00,34.7,31.8,29.95,WNW,284,0.0,0.0,89,0.00,,---,0.00,VWS V14.01,2013-05-12 04:16:00,
2013-05-11 23:21:00,34.4,31.5,29.95,WNW,284,0.0,0.0,89,0.00,,---,0.00,VWS V14.01,2013-05-12 04:21:00,
2013-05-11 23:26:00,34.1,31.5,29.95,WNW,284,0.0,0.0,90,0.00,,---,0.00,VWS V14.01,2013-05-12 04:26:00,
2013-05-11 23:30:00,34.1,31.8,29.95,WNW,283,0.0,0.0,91,0.00,,---,0.00,VWS V14.01,2013-05-12 04:30:00,
2013-05-11 23:31:00,34.0,31.6,29.95,WNW,283,0.0,0.0,91,0.00,,---,0.00,VWS V14.01,2013-05-12 04:31:00,
2013-05-11 23:36:00,34.3,32.5,29.95,WNW,284,0.0,1.0,93,0.00,,---,0.00,VWS V14.01,2013-05-12 04:36:00,
2013-05-11 23:41:00,34.2,32.1,29.96,WNW,284,0.0,1.0,92,0.00,,---,0.00,VWS V14.01,2013-05-12 04:41:00,
2013-05-11 23:46:00,34.3,32.5,29.96,WNW,284,1.0,1.0,93,0.00,,---,0.00,VWS V14.01,2013-05-12 04:46:00,
2013-05-11 23:51:00,35.3,33.8,29.96,WNW,300,0.0,1.0,94,0.00,,---,0.00,VWS V14.01,2013-05-12 04:51:00,
2013-05-11 23:56:00,35.5,33.4,29.96,WNW,300,0.0,1.0,92,0.00,,---,0.00,VWS V14.01,2013-05-12 04:56:00,